Regional Weather Roundup
Issued by NWS

Home | Current Version | Previous Version | Graphics & Text | Print | Product List | Glossary On
Versions: 1 2 3 4 5 6 7 8 9 10 11 12 13 14 15 16 17 18 19 20 21 22 23 24 25 26 27 28 29 30 31 32 33 34 35 36 37 38 39 40 41 42 43 44 45 46 47 48 49 50
000
ASUS43 KMKX 310921
RWRWI

WISCONSIN REGIONAL WEATHER ROUNDUP
NATIONAL WEATHER SERVICE MILWAUKEE/SULLIVAN WI
400 AM CDT TUE MAY 31 2016

NOTE: "FAIR" INDICATES FEW OR NO CLOUDS BELOW 12,000 FEET WITH NO
SIGNIFICANT WEATHER AND/OR OBSTRUCTIONS TO VISIBILITY.

WIZ001-002-006>008-014>016-023>028-311000-
NORTHWEST WISCONSIN

CITY           SKY/WX    TMP DP  RH WIND       PRES   REMARKS
SUPERIOR ARPT  CLOUDY    45  42  89 NE15G22   30.01R
ASHLAND        CLEAR     47  43  86 NE6       30.01S
HAYWARD        CLOUDY    61  49  64 E10       29.95F
SIREN          LGT RAIN  65  56  72 SE7       29.90S
CUMBERLAND     CLOUDY    63  52  67 SE8       29.92F
RICE LAKE      CLOUDY    66  53  63 SE9       29.93F
CHETEK         CLOUDY    65  55  70 S5        29.92F
LADYSMITH      PTCLDY    64  54  69 SE3       29.98S
EAU CLAIRE     CLOUDY    62  60  93 NE5       29.89F
MENOMONIE      CLOUDY    65  57  77 NE10      29.88F
NEW RICHMOND   CLOUDY    65  54  67 SE7       29.88F
OSCEOLA        MOCLDY    67  55  66 SE18G25   29.88F
$$

WIZ003>005-009-010-017-018-311000-
NORTH CENTRAL WISCONSIN

CITY           SKY/WX    TMP DP  RH WIND       PRES   REMARKS
MANITOWISH WTR NOT AVBL
ARBOR VITAE    CLOUDY    57  52  83 E6        30.03R
WOODRUFF       CLOUDY    57  52  83 E6        30.03R
RHINELANDER    CLOUDY    54  48  80 E12       30.04R
EAGLE RIVER      N/A     52  46  80 E6G16     30.04R
LAND O LAKES   CLOUDY    51  46  86 E6        30.05S
PHILLIPS       CLOUDY    58  49  72 SE5       29.99S
TOMAHAWK       CLOUDY    58  49  72 SE3       30.03R
MEDFORD        CLOUDY    62  54  74 S6        29.99F
MERRILL        CLOUDY    59  53  78 SE7       30.03R
$$

WIZ029-030-035-036-043>047-311000-
CENTRAL WISCONSIN

CITY           SKY/WX    TMP DP  RH WIND       PRES   REMARKS
WAUSAU         CLOUDY    61  52  72 E10       30.01R
MOSINEE        CLOUDY    57  54  88 E9        30.03R
MARSHFIELD     CLOUDY    64  55  72 SW5       29.98F
STEVENS POINT  MOCLDY    61  52  74 S3        30.02S
WAUPACA        CLOUDY    61  61  98 NE5       30.02S
WAUTOMA        CLOUDY   N/A N/A N/A NE3       30.01F
WISC RAPIDS    CLOUDY    65  55  70 W5        30.00F
CAMP DOUGLAS   NOT AVBL
$$

WIZ011>013-019>022-031-037>040-048>050-311000-
NORTHEAST WISCONSIN

CITY           SKY/WX    TMP DP  RH WIND       PRES   REMARKS
ANTIGO         CLOUDY    53  49  87 E10       30.04F
SHAWANO        CLOUDY    60  52  75 NE9       30.05R
OCONTO         CLOUDY    54  51  87 NE3       30.06R
STURGEON BAY   NOT AVBL
GREEN BAY      PTCLDY    59  54  83 NE16      30.03R
MANITOWOC      CLEAR     56  50  80 N9        30.03R
APPLETON       CLOUDY    61  54  77 N5        30.03R
CLINTONVILLE   CLOUDY    59  52  77 NE3       30.05R
OSHKOSH        MOCLDY    65  57  75 W7        30.02R
$$

WIZ032>034-041-042-053>061-311000-
SOUTHWEST WISCONSIN

CITY           SKY/WX    TMP DP  RH WIND       PRES   REMARKS
LA CROSSE      CLOUDY    64  60  87 SE9       29.91S
SPARTA         CLOUDY    61  61  99 E3        29.94F
VIROQUA        CLOUDY    61  60  97 E7        29.96F
BOSCOBEL       NOT AVBL
PRAIRIE DU CHI CLOUDY    61  59  95 CALM      29.94F
PLATTEVILLE    PTCLDY    63  60  90 NE5       29.97S
$$

WIZ056-057-062-063-064-067-068-311000-
SOUTH CENTRAL WISCONSIN

CITY           SKY/WX    TMP DP  RH WIND       PRES   REMARKS
REEDSBURG      MOCLDY    62  58  88 NE5       29.97F
BARABOO/DELLS  MOCLDY    64  54  69 E3        29.99F
LONE ROCK      CLOUDY    65  58  78 VRB3      29.96F
MINERAL POINT  MOCLDY    64  57  77 E7        29.97F
MADISON        CLOUDY    64  59  83 NE5       30.00S
MIDDLETON      CLOUDY    64  61  88 CALM      30.00F
WATERTOWN      HVY RAIN  62  62  98 CALM      30.02R
MONROE         CLOUDY    64  57  77 CALM      30.00R
JANESVILLE     CLOUDY    63  57  82 NW3       29.98S
$$

WIZ051-052-058>065-066-070>072-311000-
SOUTHEAST WISCONSIN

CITY           SKY/WX    TMP DP  RH WIND       PRES   REMARKS
MILWAUKEE      CLOUDY    63  56  78 SW3       29.99F
WAUKESHA       RAIN      63  54  72 SE7       30.01S
MILWAUKEE/TIMM CLOUDY    61  55  82 CALM      30.01S
RACINE         PTCLDY    62  55  77 CALM      30.00F
BURLINGTON     CLOUDY    62  57  84 CALM      29.99S
KENOSHA        MOCLDY    61  55  81 CALM      29.99F
FOND DU LAC    LGT RAIN  64  56  75 W12       30.03R
SHEBOYGAN      MOCLDY    58  55  90 CALM      30.00R
WEST BEND      MOCLDY    57  55  94 CALM      30.00S
JUNEAU         RAIN      63  57  82 W9        30.05R
$$

LSZ147-162-311000-
LAKE SUPERIOR

STATION/POSITION TIME  TEMP    WIND        PRES    WAVE
                       AIR SEA DIR/SP/G            HT/PER
                 (UTC) (F)     (DEG/KT/KT) (MB)    (FT/S)
W MID LAKE BUOY  0850   41 38   80/ 17/ 19 1018.6S   2/ 4
DEVILS ISLAND    0900   44      70/ 19/ 22 1017.9S
SAXON HARBOR     0800   51      70/ 13/ 15 1015.6R
$$

LMZ867-665-643>646-311000-
LAKE MICHIGAN

STATION/POSITION TIME  TEMP    WIND        PRES    WAVE
                       AIR SEA DIR/SP/G            HT/PER
                 (UTC) (F)     (DEG/KT/KT) (MB)    (FT/S)
CHAMBERS ISLAND  0800   54      10/ 18/ 20 1017.3
N MID LAKE BUOY  0850   50 49   20/ 10/ 12 1017.5R   2/ 4
NORTHPORT PIER   0800   54      10/  9/ 13 1017.6R
KEWAUNEE LAKESHO 0800   54      10/ 15/ 22 1016.1R
SHEBOYGAN LAKESH 0900   63     240/  4/  4 1016.0R
PORT WASHINGTON  0800   58     260/  3/  3 1016.6S
S MID LAKE BUOY  0850   59 56  110/  6/  6 1015.1F   0
KENOSHA   LAKESH 0900   61      CALM  /  2 1015.2F
$$

TC  - TEMPERATURE IN CELSIUS
VSB - VISIBILITY IN STATUTE MILES
WCI - WIND CHILL INDEX
HX  - HEAT INDEX





USA.gov is the U.S. government's official web portal to all federal, state and local government web resources and services.